Theta_e
311 313 313 314 313 313 313 314 321 327 333 333 332 331 332 330 329 334 334 334 334 334 331 328 327 325 325 325 322 321 321 320 322 318 320 320 322 320 320 322 322 324 326
309 311 311 311 312 314 314 312 319 329 333 335 334 329 328 326 329 332 334 334 333 332 329 327 326 325 323 323 321 324 318 320 322 316 316 312 316 318 320 320 322 322 324
307 308 309 310 311 313 317 320 323 331 332 331 329 327 326 325 324 325 328 329 331 331 329 328 326 324 322 322 320 318 319 315 320 318 314 308 308 312 318 318 320 321 320
306 307 309 309 310 314 325 328 331 332 333 332 328 328 326 324 321 323 324 326 330 330 329 331 328 326 324 321 320 321 317 316 314 315 318 314 313 312 309 314 316 319 320
305 305 307 307 313 325 328 331 333 333 332 330 329 326 323 322 321 322 323 323 325 328 329 329 328 325 321 321 321 321 318 317 316 314 313 313 313 314 311 307 311 315 317
304 304 307 310 320 326 331 332 332 328 329 328 326 325 323 321 321 320 321 321 322 324 327 326 324 323 322 321 321 321 320 318 317 315 314 313 312 311 312 310 308 310 318
302 306 317 319 324 327 328 330 330 326 326 325 323 323 322 322 321 320 321 320 321 321 323 323 321 321 322 322 321 321 321 320 317 317 315 315 314 313 313 314 313 310 318
305 308 318 322 326 327 327 328 327 323 323 323 322 322 322 322 321 321 321 321 321 321 322 322 321 322 323 323 323 323 323 321 320 318 318 316 316 315 313 311 313 309 316
314 317 322 325 326 326 323 326 325 323 323 322 322 322 322 322 321 321 321 321 320 322 322 323 323 323 325 324 324 324 325 324 321 320 319 318 318 317 316 315 320 313 308
316 321 324 324 325 325 323 324 324 323 323 323 324 323 322 322 321 321 320 320 320 322 322 322 322 323 324 324 323 324 324 322 319 319 321 318 320 318 318 316 316 316 313
317 321 323 323 324 323 324 322 323 323 322 323 322 322 322 322 322 321 321 321 320 323 322 324 324 324 323 323 323 323 323 321 320 317 319 319 318 317 319 317 316 313 313
318 321 322 323 324 323 323 321 322 323 323 322 322 321 322 321 320 320 321 320 321 322 323 324 325 325 323 322 322 323 323 321 321 318 318 319 322 321 321 318 316 313 314
319 320 321 323 323 322 323 322 321 322 322 322 321 321 320 320 320 321 320 319 320 320 321 324 324 324 322 323 326 324 324 322 321 321 318 322 321 320 319 320 318 317 318
319 320 321 322 323 323 323 322 320 321 323 324 322 320 320 320 320 320 319 319 320 321 323 323 324 324 323 323 324 326 325 323 322 323 322 323 323 321 321 320 320 320 319
318 320 320 321 322 322 322 322 320 320 323 324 322 320 321 321 321 320 320 322 324 325 326 323 323 321 319 315 317 325 321 320 321 322 324 323 322 320 320 321 321 320 318
319 320 321 322 322 322 322 321 319 320 324 324 325 326 325 322 321 320 323 322 325 326 326 321 320 317 317 303 308 317 320 323 323 321 321 321 318 315 312 313 314 318 319
319 320 321 322 322 322 322 318 319 320 323 327 328 326 323 322 321 320 321 324 322 324 322 317 317 315 312 300 304 309 320 324 323 322 320 319 318 317 315 310 310 310 310
319 320 322 322 322 321 319 317 318 322 324 327 327 324 323 322 321 319 319 318 320 322 317 315 314 314 311 301 302 308 324 323 323 322 321 320 319 318 319 318 317 317 318
320 321 323 322 321 318 317 318 320 322 325 325 324 325 323 321 320 319 318 317 318 317 315 315 313 313 315 301 302 314 322 322 322 322 322 321 319 303 306 318 315 313 312
321 321 322 322 319 316 317 319 319 321 323 325 324 324 322 322 321 319 318 318 318 318 318 315 313 310 316 300 301 314 323 321 321 320 318 307 312 301 305 318 316 313 314
319 320 321 319 319 316 317 318 319 320 323 326 324 323 321 322 322 319 319 319 320 320 317 316 313 313 313 311 301 306 322 321 321 319 317 312 299 300 301 308 318 314 315
319 321 320 318 315 317 317 316 318 322 322 323 323 321 321 324 322 320 319 319 319 317 315 314 313 313 317 305 300 301 309 312 321 319 317 307 297 299 300 308 298 300 309
320 321 320 315 316 317 317 314 317 315 320 321 320 321 322 322 322 320 318 317 317 317 318 318 317 314 317 315 300 299 301 304 319 320 309 297 296 297 301 298 299 304 316
319 319 316 315 314 315 316 317 313 316 321 320 320 322 322 320 322 322 320 318 317 317 318 317 316 312 316 317 315 312 310 304 308 305 306 304 304 303 305 306 309 319 315
320 319 317 315 315 315 315 314 314 320 319 320 322 322 321 321 320 318 317 319 318 318 318 316 315 314 317 316 309 311 315 317 310 311 314 316 316 315 316 317 318 316 317
316 319 318 317 317 316 315 314 317 322 321 320 322 323 322 321 319 315 311 295 302 304 306 306 312 316 305 297 297 297 296 296 299 317 317 316 316 316 317 317 318 316 312
Wind_Speed
15 14 15 15 9 9 8 10 9 9 10 6 7 5 8 7 5 6 8 9 9 10 9 5 5 5 5 5 3 1 4 3 3 2 1 2 4 4 4 3 3 4 4
16 16 14 10 10 15 11 8 10 9 9 7 5 4 5 2 5 6 7 7 9 10 8 7 5 6 4 4 3 4 2 3 4 3 1 2 2 3 4 3 4 5 3
15 13 13 12 9 10 9 8 9 8 6 8 8 7 7 5 4 3 4 3 5 6 6 6 5 5 4 4 4 4 6 3 3 4 4 2 3 2 1 3 3 3 3
11 9 12 13 9 9 5 5 7 9 9 9 8 11 7 8 3 4 3 4 5 6 6 5 5 5 4 5 4 4 4 4 4 1 3 1 2 3 2 2 1 4 3
16 13 14 10 7 7 6 7 9 9 9 8 11 8 8 4 4 4 7 4 5 6 6 6 6 5 4 4 5 4 4 3 3 3 2 2 1 1 2 1 2 2 1
10 10 9 5 4 6 7 9 10 7 8 9 9 10 11 7 6 5 5 4 3 3 5 5 5 5 4 5 4 4 5 5 3 3 3 3 4 3 3 1 0 1 1
9 9 7 6 7 8 7 8 11 8 8 9 8 8 8 8 9 7 6 6 4 2 4 5 5 4 4 4 4 4 5 5 4 5 4 3 3 3 2 3 2 2 1
7 7 6 6 9 10 8 9 11 10 9 9 8 7 8 5 5 5 5 4 3 4 4 4 4 4 4 5 3 3 3 5 5 6 5 4 4 4 3 4 5 2 2
4 6 7 9 9 9 8 10 11 10 10 10 8 7 7 8 6 6 5 4 3 3 5 5 4 3 4 3 3 5 5 5 4 5 5 4 4 4 4 3 3 5 4
7 8 8 10 8 9 8 10 11 11 10 9 8 7 7 7 7 6 6 5 5 5 5 3 2 1 0 2 5 3 4 5 3 2 4 4 3 4 4 4 3 2 4
9 9 8 9 9 8 8 9 12 12 9 8 7 8 6 7 6 6 6 6 5 5 4 4 3 2 1 1 3 4 4 5 4 1 3 4 4 3 3 3 3 3 3
9 10 9 10 11 10 10 10 9 10 8 7 7 7 6 6 6 6 6 5 6 4 4 4 3 2 2 3 3 5 4 4 4 4 4 3 3 3 4 4 5 4 3
12 11 10 11 11 10 9 9 8 8 7 7 7 6 6 6 6 6 6 4 6 4 3 4 4 2 3 5 3 3 5 5 2 2 4 4 5 4 3 4 7 6 5
12 12 10 10 10 9 10 9 7 7 7 7 7 7 6 6 6 6 5 5 5 5 4 4 4 2 3 4 4 2 2 5 4 1 3 4 5 5 6 6 7 8 9
13 12 11 10 9 9 8 7 6 7 6 7 6 6 6 5 5 5 4 4 4 4 6 5 5 4 3 4 5 4 5 5 4 2 3 5 7 8 6 5 8 10 8
12 13 13 12 12 12 10 8 7 7 7 7 7 7 7 6 6 5 3 3 5 6 6 5 5 4 3 7 2 6 4 4 4 4 5 4 9 8 10 11 9 8 13
15 15 15 13 12 11 11 8 9 6 7 7 7 8 6 6 6 5 3 5 6 6 6 5 5 4 4 8 8 7 4 5 5 6 6 6 6 10 10 14 13 10 11
12 15 13 12 11 9 9 7 7 7 7 8 9 7 6 7 6 5 5 5 4 6 6 5 5 4 3 5 7 8 5 6 7 7 7 8 9 10 13 12 12 10 10
9 10 13 12 10 9 8 9 7 8 7 8 8 7 6 7 7 6 6 4 5 4 4 4 5 5 3 4 8 8 5 6 7 8 6 8 9 10 14 13 14 15 12
8 10 12 10 11 8 10 10 8 8 8 9 9 7 7 8 7 7 6 3 4 5 4 5 3 4 4 4 7 8 4 5 6 7 7 11 9 12 11 13 13 13 12
8 8 11 13 13 10 10 10 9 10 9 8 7 6 6 7 6 6 4 5 6 6 5 5 3 3 3 3 7 10 4 4 5 6 6 4 10 13 12 11 11 12 11
12 14 12 10 9 12 12 9 11 9 7 8 7 6 6 5 5 6 5 5 6 6 5 5 4 2 3 4 5 9 9 6 6 6 6 4 10 12 13 10 15 16 12
13 13 13 10 9 11 12 11 10 7 7 8 7 6 6 5 6 6 6 4 5 6 6 5 4 3 1 2 5 9 12 8 7 6 9 12 11 12 11 15 14 9 7
7 10 12 13 11 8 10 12 8 7 9 8 8 6 7 6 5 4 4 5 5 5 6 5 5 3 2 3 3 4 5 9 7 11 8 7 8 8 9 7 4 4 5
2 6 11 12 12 9 9 7 9 8 8 8 8 6 5 5 5 3 2 3 3 5 6 4 4 5 4 3 6 7 5 6 7 9 6 6 5 5 5 6 4 5 5
7 5 6 8 9 10 7 7 9 10 10 8 7 7 7 4 4 4 3 8 5 7 7 8 5 3 6 10 10 9 10 14 12 5 5 5 5 5 5 6 5 4 4
Wind_Direction
261 266 267 261 263 259 214 210 177 177 158 154 158 162 183 159 154 163 162 157 162 172 177 175 169 160 190 201 166 216 237 257 202 179 279 281 264 244 220 211 227 236 226
271 269 265 266 252 252 223 210 206 165 177 171 166 131 137 119 143 156 164 169 161 169 169 166 180 187 178 196 208 206 237 238 179 161 98 281 289 256 214 196 208 226 204
260 263 270 258 249 242 232 200 191 157 136 127 117 108 104 92 97 116 125 173 173 157 175 166 178 193 185 207 200 193 196 214 202 213 148 142 224 324 137 200 199 202 199
248 241 260 270 245 243 151 143 121 123 132 143 120 148 136 148 151 144 132 160 154 151 178 170 169 173 168 200 200 189 191 163 185 186 227 78 142 184 316 20 151 173 195
247 245 251 252 241 167 149 119 131 127 141 134 137 135 120 109 110 104 131 127 136 159 152 158 161 174 188 198 189 188 189 188 166 174 142 157 46 84 122 301 358 83 144
247 250 262 257 185 121 128 132 127 115 120 127 125 132 133 126 119 121 117 122 119 125 142 156 179 180 180 191 199 208 200 197 198 189 189 159 162 192 155 159 207 163 89
265 247 214 160 131 120 119 117 124 115 114 109 110 122 123 132 134 140 138 138 132 142 177 173 178 187 199 204 190 206 206 204 194 195 207 193 198 149 141 133 153 137 134
256 246 170 141 128 119 114 120 121 109 106 106 104 106 118 120 118 127 130 133 146 158 170 176 179 191 208 217 194 207 224 205 205 208 201 192 203 175 171 168 144 98 93
197 146 130 128 116 114 117 124 116 110 108 109 108 111 115 116 130 128 120 137 131 162 170 167 166 210 236 241 211 209 202 208 203 221 213 208 202 184 194 189 174 151 135
140 130 126 121 115 117 118 109 118 118 119 116 120 123 119 117 120 119 134 145 161 154 148 137 173 191 346 211 205 200 219 168 179 200 197 193 188 182 181 185 175 127 127
145 133 128 122 115 115 119 115 118 123 120 119 121 125 128 128 129 135 143 154 144 155 149 165 163 158 200 267 221 214 167 150 166 185 175 200 152 161 170 168 137 116 111
126 123 127 125 127 129 126 122 125 127 133 132 128 129 129 131 132 144 152 156 163 155 157 163 158 138 227 233 206 205 180 171 171 162 161 143 113 140 137 148 135 138 124
131 130 135 139 137 135 133 134 134 135 136 128 129 134 136 142 152 154 159 161 145 157 171 168 137 160 252 277 242 204 195 171 150 158 158 154 147 146 124 112 117 122 112
145 139 143 142 142 140 142 145 143 143 144 135 144 148 157 161 164 152 157 158 168 176 149 150 124 111 32 355 337 82 133 138 159 204 140 144 132 132 130 124 127 124 116
150 150 147 147 145 140 149 152 150 152 142 136 143 150 154 156 153 142 149 177 190 139 131 127 101 83 48 10 341 100 92 101 110 95 120 122 119 118 111 133 134 129 134
166 153 155 153 156 158 163 157 165 159 145 148 151 161 144 155 153 149 151 148 122 117 123 119 109 79 48 359 62 97 100 94 84 89 83 94 119 108 104 97 89 128 139
178 160 160 162 164 165 167 164 175 142 145 149 150 149 150 147 151 155 146 124 123 119 116 120 110 89 51 19 91 100 94 86 80 77 81 77 97 105 102 92 88 83 83
185 165 159 159 163 161 169 147 148 143 145 153 153 148 160 145 142 147 127 114 117 135 132 132 120 104 53 45 110 99 83 79 73 79 87 103 110 106 102 95 85 88 107
173 189 160 160 157 159 162 148 143 141 144 155 156 164 159 144 149 160 164 144 130 129 138 139 138 121 77 78 128 101 81 83 80 90 79 103 106 100 103 96 93 89 82
174 179 162 157 157 159 157 148 152 147 165 160 170 168 165 156 163 162 162 150 140 145 133 128 148 127 115 97 139 106 105 98 90 91 82 85 110 98 94 109 101 101 106
182 156 160 168 168 153 157 158 153 173 180 157 155 158 161 163 161 147 142 143 125 125 131 130 121 116 103 116 153 125 117 115 105 105 108 102 106 100 92 103 113 112 115
167 160 162 170 153 159 159 156 170 182 157 151 154 157 153 149 143 148 135 135 126 126 132 119 95 84 72 92 154 131 124 131 119 118 121 117 113 109 95 94 120 119 119
170 164 165 152 156 166 166 162 190 147 151 146 147 138 134 137 138 141 132 118 123 134 151 158 156 151 92 107 140 138 130 126 127 126 118 119 109 100 98 129 129 123 119
160 157 150 155 159 166 168 178 156 152 148 146 141 139 138 136 129 123 138 133 140 139 159 169 175 142 128 117 128 122 107 100 86 102 109 111 93 88 115 113 124 114 125
145 148 159 163 166 163 168 150 150 144 144 147 147 141 127 143 129 101 110 143 155 157 159 167 155 151 161 181 154 152 148 134 127 115 124 128 125 133 138 146 129 117 121
2 125 164 158 157 159 159 145 153 146 142 141 149 153 145 147 137 149 120 36 73 141 139 151 146 121 134 140 150 147 128 125 141 120 136 138 145 158 150 159 143 116 118